Nebraska City, NE

10:44 PM CDT on April 24, 2017 (GMT -0500)
Nebraska City Municipal

Weather History for KAFK - April, 2014

Change the Weather History Date:

Thursday, April 17, 2014

  Actual Average (KSDA) Record (KSDA)
Temperature  
Mean Temperature 43 °F -  
Max Temperature 54 °F 65 °F 89 °F (2002)
Min Temperature 32 °F 42 °F 23 °F (1956)
Degree Days  
Heating Degree Days 22    
Moisture  
Dew Point 27 °F    
Average Humidity 60    
Maximum Humidity 79    
Minimum Humidity 35    
Precipitation  
Precipitation 0.00 in - - ()
Sea Level Pressure  
Sea Level Pressure 30.25 in    
Wind  
Wind Speed 11 mph (North)    
Max Wind Speed 20 mph    
Max Gust Speed 29 mph    
Visibility 10 miles    
Events      
Averages and records for this station are not official NWS values.
T = Trace of Precipitation, MM = Missing Value Source: NWS Daily Summary

Daily Weather History Graph

Daily Weather History Graph

Search for Another Location

Airport or City:

Trip Planner

Search our weather history database for the weather conditions in past years. The results will help you decide how hot, cold, wet, or windy it might be!

Date:

Astronomy

Apr. 17, 2014 Rise Set
Actual Time 6:41 AM CDT 8:04 PM CDT
Civil Twilight 6:13 AM CDT 8:33 PM CDT
Nautical Twilight 5:39 AM CDT 9:07 PM CDT
Astronomical Twilight 5:03 AM CDT 9:43 PM CDT
Moon 10:52 PM CDT (4/17) 8:13 AM CDT (4/17)
Length of Visible Light 14h 20m
Length of Day
13h 23m
Waning Gibbous, 93% of the Moon is Illuminated
Apr 17
Waning Gibbous
Apr 22
Last Quarter
Apr 29
New
May 6
First Quarter
May 14
Full

Hourly Weather History & Observations

Time (CDT) Temp. Windchill Dew Point Humidity Pressure Visibility Wind Dir Wind Speed Gust Speed Precip Events Conditions
12:15 AM 37.0 °F 27.4 °F 29.7 °F 75% 30.11 in 10.0 mi NNW 17.3 mph - N/A   Overcast
12:35 AM 36.7 °F 26.9 °F 29.3 °F 75% 30.11 in 10.0 mi NNW 17.3 mph 28.8 mph N/A   Overcast
12:55 AM 36.5 °F 27.4 °F 29.3 °F 75% 30.13 in 10.0 mi NNW 15.0 mph 24.2 mph N/A   Overcast
1:15 AM 36.0 °F 25.3 °F 28.8 °F 75% 30.14 in 10.0 mi NNW 19.6 mph 24.2 mph N/A   Overcast
1:35 AM 35.6 °F 24.8 °F 28.4 °F 75% 30.14 in 10.0 mi North 19.6 mph 26.5 mph N/A   Overcast
1:55 AM 35.2 °F 24.4 °F 28.2 °F 76% 30.14 in 10.0 mi North 19.6 mph 26.5 mph N/A   Overcast
2:15 AM 34.9 °F 24.6 °F 28.2 °F 77% 30.14 in 10.0 mi NNW 17.3 mph 23.0 mph N/A   Overcast
2:35 AM 34.7 °F 24.3 °F 28.2 °F 77% 30.15 in 10.0 mi North 17.3 mph - N/A   Overcast
2:55 AM 34.7 °F 24.0 °F 28.2 °F 77% 30.16 in 10.0 mi NNW 18.4 mph - N/A   Overcast
3:15 AM 34.7 °F 24.7 °F 28.0 °F 77% 30.17 in 10.0 mi North 16.1 mph - N/A   Overcast
3:35 AM 34.7 °F 26.9 °F 28.0 °F 77% 30.19 in 10.0 mi NNW 10.4 mph - N/A   Overcast
3:55 AM 34.7 °F 27.5 °F 28.2 °F 77% 30.20 in 10.0 mi North 9.2 mph - N/A   Overcast
4:15 AM 34.5 °F 24.8 °F 27.9 °F 77% 30.20 in 10.0 mi North 15.0 mph - N/A   Overcast
4:35 AM 34.2 °F 25.7 °F 27.7 °F 77% 30.21 in 10.0 mi North 11.5 mph 18.4 mph N/A   Overcast
4:55 AM 34.0 °F 24.6 °F 27.5 °F 77% 30.22 in 10.0 mi NNW 13.8 mph - N/A   Overcast
5:15 AM 33.8 °F 24.3 °F 27.3 °F 77% 30.22 in 10.0 mi NNW 13.8 mph - N/A   Overcast
5:35 AM 33.6 °F 23.3 °F 27.1 °F 77% 30.23 in 10.0 mi NNW 16.1 mph - N/A   Overcast
5:55 AM 33.4 °F 24.8 °F 27.1 °F 78% 30.23 in 10.0 mi NNW 11.5 mph - N/A   Overcast
6:15 AM 33.4 °F 24.3 °F 27.0 °F 77% 30.24 in 10.0 mi NNW 12.7 mph - N/A   Overcast
6:35 AM 33.1 °F 24.4 °F 26.6 °F 77% 30.24 in 10.0 mi North 11.5 mph - N/A   Overcast
6:55 AM 32.9 °F 23.7 °F 26.6 °F 78% 30.25 in 10.0 mi North 12.7 mph - N/A   Overcast
7:15 AM 32.4 °F 22.5 °F 26.4 °F 79% 30.26 in 10.0 mi North 13.8 mph 20.7 mph N/A   Overcast
7:35 AM 32.5 °F 21.9 °F 26.4 °F 78% 30.27 in 10.0 mi NNW 16.1 mph - N/A   Overcast
7:55 AM 32.5 °F 22.3 °F 26.4 °F 78% 30.28 in 10.0 mi North 15.0 mph - N/A   Overcast
8:15 AM 32.4 °F 23.5 °F 25.7 °F 76% 30.29 in 10.0 mi North 11.5 mph - N/A   Overcast
8:35 AM 32.5 °F 23.7 °F 25.7 °F 76% 30.30 in 10.0 mi North 11.5 mph - N/A   Overcast
8:55 AM 33.1 °F 24.9 °F 26.1 °F 75% 30.31 in 10.0 mi North 10.4 mph - N/A   Overcast
9:15 AM 33.6 °F 26.8 °F 26.4 °F 75% 30.32 in 10.0 mi North 8.1 mph - N/A   Overcast
9:35 AM 33.6 °F 27.5 °F 26.4 °F 75% 30.33 in 10.0 mi North 6.9 mph - N/A   Overcast
9:55 AM 33.8 °F 27.0 °F 26.4 °F 74% 30.34 in 10.0 mi NNW 8.1 mph - N/A   Overcast
10:15 AM 34.2 °F 29.0 °F 26.4 °F 73% 30.34 in 10.0 mi NNW 5.8 mph - N/A   Overcast
10:35 AM 34.9 °F 27.7 °F 26.6 °F 72% 30.34 in 10.0 mi North 9.2 mph - N/A   Overcast
10:55 AM 36.0 °F 29.0 °F 26.6 °F 69% 30.33 in 10.0 mi NNE 9.2 mph - N/A   Overcast
11:15 AM 37.6 °F 30.5 °F 27.1 °F 66% 30.33 in 10.0 mi North 10.4 mph - N/A   Scattered Clouds
11:35 AM 38.8 °F 33.8 °F 27.3 °F 63% 30.33 in 10.0 mi NE 6.9 mph - N/A   Clear
11:55 AM 40.3 °F 34.9 °F 27.9 °F 61% 30.32 in 10.0 mi NNE 8.1 mph - N/A   Clear
12:15 PM 40.3 °F 36.3 °F 27.1 °F 59% 30.31 in 10.0 mi North 5.8 mph - N/A   Clear
12:35 PM 42.1 °F 37.7 °F 28.0 °F 58% 30.31 in 10.0 mi NNE 6.9 mph - N/A   Clear
12:55 PM 42.6 °F 38.4 °F 27.9 °F 56% 30.30 in 10.0 mi North 6.9 mph 16.1 mph N/A   Clear
1:15 PM 44.6 °F 40.7 °F 28.2 °F 53% 30.29 in 10.0 mi NNE 6.9 mph - N/A   Clear
1:35 PM 45.7 °F 41.5 °F 28.4 °F 51% 30.29 in 10.0 mi North 8.1 mph - N/A   Clear
1:55 PM 46.4 °F 44.3 °F 28.6 °F 50% 30.29 in 10.0 mi ENE 4.6 mph - N/A   Clear
2:15 PM 47.7 °F - 28.9 °F 48% 30.29 in 10.0 mi East 4.6 mph - N/A   Clear
2:35 PM 48.9 °F - 28.6 °F 45% 30.29 in 10.0 mi NE 6.9 mph - N/A   Clear
2:55 PM 49.6 °F - 28.0 °F 43% 30.28 in 10.0 mi NNW 4.6 mph - N/A   Clear
3:15 PM 50.2 °F - 29.3 °F 45% 30.28 in 10.0 mi NNE 5.8 mph - N/A   Clear
3:35 PM 50.4 °F - 28.0 °F 42% 30.27 in 10.0 mi Calm Calm - N/A   Clear
3:55 PM 51.8 °F - 27.5 °F 39% 30.26 in 10.0 mi NNE 4.6 mph - N/A   Clear
4:15 PM 52.3 °F - 28.0 °F 39% 30.26 in 10.0 mi NNW 4.6 mph - N/A   Clear
4:35 PM 53.1 °F - 27.7 °F 38% 30.25 in 10.0 mi ENE 4.6 mph - N/A   Clear
4:55 PM 53.1 °F - 27.5 °F 37% 30.25 in 10.0 mi East 3.5 mph - N/A   Clear
5:15 PM 53.1 °F - 26.6 °F 36% 30.25 in 10.0 mi Calm Calm - N/A   Clear
5:35 PM 54.0 °F - 27.0 °F 35% 30.25 in 10.0 mi Calm Calm - N/A   Unknown
5:55 PM 53.6 °F - 27.0 °F 36% 30.25 in 10.0 mi Calm Calm - N/A   Clear
6:15 PM 54.0 °F - 27.9 °F 37% 30.24 in 10.0 mi Calm Calm - N/A   Clear
6:35 PM 53.8 °F - 27.1 °F 36% 30.24 in 10.0 mi Calm Calm - N/A   Clear
6:55 PM 53.6 °F - 27.3 °F 36% 30.24 in 10.0 mi Calm Calm - N/A   Clear
7:15 PM 52.9 °F - 28.2 °F 39% 30.24 in 10.0 mi ESE 4.6 mph - N/A   Clear
7:35 PM 52.0 °F - 27.5 °F 39% 30.24 in 10.0 mi SE 3.5 mph - N/A   Clear
7:55 PM 51.3 °F - 27.1 °F 39% 30.25 in 10.0 mi Calm Calm - N/A   Clear
8:15 PM 50.2 °F - 27.5 °F 42% 30.25 in 10.0 mi SSE 3.5 mph - N/A   Clear
8:35 PM 49.1 °F - 27.5 °F 43% 30.26 in 10.0 mi Calm Calm - N/A   Clear
8:55 PM 48.2 °F - 27.3 °F 44% 30.26 in 10.0 mi Calm Calm - N/A   Clear
9:15 PM 48.6 °F - 27.1 °F 43% 30.26 in 10.0 mi Calm Calm - N/A   Clear
9:35 PM 48.0 °F - 26.6 °F 43% 30.27 in 10.0 mi South 3.5 mph - N/A   Clear
9:55 PM 47.7 °F - 26.6 °F 44% 30.26 in 10.0 mi SSE 4.6 mph - N/A   Clear
10:15 PM 45.5 °F 44.2 °F 26.6 °F 48% 30.27 in 10.0 mi South 3.5 mph - N/A   Clear
10:35 PM 44.8 °F 43.3 °F 26.4 °F 49% 30.27 in 10.0 mi SSW 3.5 mph - N/A   Clear
10:55 PM 44.8 °F 42.4 °F 26.4 °F 49% 30.26 in 10.0 mi South 4.6 mph - N/A   Clear
11:15 PM 45.0 °F 42.6 °F 26.6 °F 49% 30.26 in 10.0 mi SSW 4.6 mph - N/A   Clear
11:35 PM 44.1 °F 41.5 °F 26.6 °F 50% 30.26 in 10.0 mi SSW 4.6 mph - N/A   Clear
11:55 PM 41.9 °F 40.0 °F 27.1 °F 56% 30.26 in 10.0 mi SSW 3.5 mph - N/A   Clear